TimeEST,TemperatureF,Dew PointF,Humidity,Sea Level PressureIn,VisibilityMPH,Wind Direction,Wind SpeedMPH,Gust SpeedMPH,PrecipitationIn,Events,Conditions,WindDirDegrees,DateUTC
12:15 AM,32.0,30.2,93,30.11,3.0,Calm,Calm,-,0.01,,Overcast,0,2013-01-30 05:15:00
12:55 AM,32.0,30.2,93,30.09,2.0,Calm,Calm,-,0.02,,Overcast,0,2013-01-30 05:55:00
1:35 AM,33.8,30.2,87,30.08,3.0,Calm,Calm,-,N/A,,Overcast,0,2013-01-30 06:35:00
1:55 AM,33.8,30.2,87,30.07,2.5,Calm,Calm,-,N/A,,Overcast,0,2013-01-30 06:55:00
2:15 AM,32.0,30.2,93,30.06,1.8,Calm,Calm,-,N/A,,Overcast,0,2013-01-30 07:15:00
2:35 AM,32.0,30.2,93,30.05,2.5,Calm,Calm,-,N/A,,Overcast,0,2013-01-30 07:35:00
3:15 AM,32.0,30.2,93,30.03,2.0,Calm,Calm,-,N/A,,Overcast,0,2013-01-30 08:15:00
3:35 AM,32.0,30.2,93,30.02,1.2,Calm,Calm,-,N/A,,Overcast,0,2013-01-30 08:35:00
3:55 AM,32.0,30.2,93,30.00,0.5,Calm,Calm,-,N/A,,Overcast,0,2013-01-30 08:55:00
4:15 AM,33.8,30.2,87,30.00,1.0,Calm,Calm,-,N/A,,Overcast,0,2013-01-30 09:15:00
4:35 AM,33.8,30.2,87,29.99,1.0,Calm,Calm,-,N/A,,Overcast,0,2013-01-30 09:35:00
4:55 AM,33.8,30.2,87,29.98,1.0,Calm,Calm,-,N/A,,Overcast,0,2013-01-30 09:55:00
5:35 AM,33.8,30.2,87,29.96,0.8,Calm,Calm,-,N/A,,Overcast,0,2013-01-30 10:35:00
5:55 AM,33.8,30.2,87,29.95,1.0,Calm,Calm,-,N/A,,Overcast,0,2013-01-30 10:55:00
6:15 AM,32.0,30.2,93,29.95,1.0,Calm,Calm,-,N/A,,Overcast,0,2013-01-30 11:15:00
6:35 AM,33.8,30.2,87,29.94,1.0,Calm,Calm,-,N/A,,Overcast,0,2013-01-30 11:35:00
6:55 AM,33.8,30.2,87,29.92,1.0,Calm,Calm,-,N/A,,Overcast,0,2013-01-30 11:55:00
7:15 AM,33.8,30.2,87,29.91,0.5,Calm,Calm,-,N/A,,Overcast,0,2013-01-30 12:15:00
7:55 AM,33.8,30.2,87,29.89,0.5,Calm,Calm,-,N/A,,Overcast,0,2013-01-30 12:55:00
8:15 AM,33.8,30.2,87,29.88,0.5,Calm,Calm,-,0.01,,Overcast,0,2013-01-30 13:15:00
8:35 AM,33.8,30.2,87,29.87,0.5,Calm,Calm,-,0.01,,Overcast,0,2013-01-30 13:35:00
9:15 AM,33.8,32.0,93,29.84,0.2,Calm,Calm,-,0.01,,Overcast,0,2013-01-30 14:15:00
9:35 AM,33.8,32.0,93,29.84,0.2,Calm,Calm,-,0.01,,Overcast,0,2013-01-30 14:35:00
9:55 AM,33.8,32.0,93,29.83,0.2,Calm,Calm,-,0.01,,Overcast,0,2013-01-30 14:55:00
10:15 AM,33.8,32.0,93,29.81,0.2,Calm,Calm,-,N/A,,Overcast,0,2013-01-30 15:15:00
10:35 AM,33.8,33.8,100,29.81,0.2,Calm,Calm,-,N/A,,Overcast,0,2013-01-30 15:35:00
10:55 AM,35.6,33.8,93,29.79,0.2,Calm,Calm,-,N/A,,Overcast,0,2013-01-30 15:55:00
11:15 AM,35.6,33.8,93,29.77,0.2,Calm,Calm,-,N/A,,Overcast,0,2013-01-30 16:15:00
11:35 AM,35.6,33.8,93,29.75,0.2,Calm,Calm,-,N/A,,Overcast,0,2013-01-30 16:35:00
11:55 AM,35.6,35.6,100,29.73,0.2,Calm,Calm,-,N/A,,Overcast,0,2013-01-30 16:55:00
12:15 PM,35.6,33.8,93,29.71,0.2,Calm,Calm,-,N/A,,Overcast,0,2013-01-30 17:15:00
12:35 PM,37.4,35.6,93,29.69,0.2,Calm,Calm,-,N/A,,Overcast,0,2013-01-30 17:35:00
12:55 PM,37.4,35.6,93,29.68,0.2,Calm,Calm,-,N/A,,Overcast,0,2013-01-30 17:55:00
1:15 PM,37.4,35.6,93,29.66,0.2,Calm,Calm,-,N/A,,Overcast,0,2013-01-30 18:15:00
1:35 PM,35.6,33.8,93,29.65,0.2,Calm,Calm,-,N/A,,Overcast,0,2013-01-30 18:35:00
1:55 PM,37.4,35.6,93,29.63,0.2,Calm,Calm,-,N/A,,Overcast,0,2013-01-30 18:55:00
2:15 PM,37.4,35.6,93,29.61,0.2,Calm,Calm,-,N/A,,Overcast,0,2013-01-30 19:15:00
2:35 PM,37.4,35.6,93,29.59,0.2,NNW,4.6,-,N/A,,Overcast,340,2013-01-30 19:35:00
2:55 PM,39.2,37.4,93,29.59,0.2,Calm,Calm,-,N/A,,Overcast,0,2013-01-30 19:55:00
3:15 PM,42.8,41.0,93,29.58,0.2,SSW,12.7,17.3,N/A,,Overcast,200,2013-01-30 20:15:00
3:55 PM,50.0,48.2,94,29.58,0.5,SSW,6.9,-,N/A,,Overcast,200,2013-01-30 20:55:00
4:15 PM,51.8,48.2,88,29.58,1.8,SSW,9.2,18.4,N/A,,Overcast,210,2013-01-30 21:15:00
4:35 PM,51.8,50.0,94,29.58,1.5,SW,11.5,-,N/A,,Overcast,220,2013-01-30 21:35:00
4:55 PM,51.8,50.0,94,29.58,1.5,SW,8.1,-,N/A,,Overcast,220,2013-01-30 21:55:00
5:15 PM,48.2,48.2,100,29.56,0.8,South,4.6,-,N/A,,Overcast,190,2013-01-30 22:15:00
5:36 PM,46.4,44.6,93,29.56,0.2,Calm,Calm,-,N/A,,Overcast,0,2013-01-30 22:36:00
5:55 PM,50.0,48.2,94,29.56,0.8,Calm,Calm,-,N/A,,Overcast,0,2013-01-30 22:55:00
6:15 PM,44.6,44.6,100,29.55,0.2,NE,3.5,-,N/A,,Overcast,40,2013-01-30 23:15:00
6:35 PM,42.8,41.0,93,29.55,0.2,Calm,Calm,-,0.01,,Overcast,0,2013-01-30 23:35:00
6:55 PM,41.0,39.2,93,29.55,0.2,Calm,Calm,-,0.01,,Overcast,0,2013-01-30 23:55:00
7:15 PM,39.2,37.4,93,29.55,0.2,Calm,Calm,-,N/A,,Overcast,0,2013-01-31 00:15:00
7:35 PM,42.8,39.2,87,29.54,0.2,Calm,Calm,-,N/A,,Overcast,0,2013-01-31 00:35:00
7:55 PM,48.2,46.4,93,29.52,0.8,SSW,4.6,-,N/A,,Overcast,200,2013-01-31 00:55:00
8:15 PM,50.0,48.2,94,29.51,2.5,South,9.2,-,N/A,,Overcast,190,2013-01-31 01:15:00
8:35 PM,48.2,46.4,93,29.50,1.2,South,4.6,-,N/A,,Overcast,180,2013-01-31 01:35:00
8:55 PM,51.8,51.8,100,29.50,4.0,South,10.4,-,N/A,,Overcast,180,2013-01-31 01:55:00
9:15 PM,51.8,50.0,94,29.49,5.0,SSW,8.1,-,N/A,,Overcast,200,2013-01-31 02:15:00
9:35 PM,51.8,48.2,88,29.50,4.0,SSW,8.1,-,N/A,,Overcast,200,2013-01-31 02:35:00
9:55 PM,51.8,48.2,88,29.48,3.0,South,8.1,-,N/A,,Overcast,180,2013-01-31 02:55:00
10:15 PM,48.2,46.4,93,29.47,0.8,South,4.6,-,N/A,,Overcast,170,2013-01-31 03:15:00
10:35 PM,51.8,50.0,94,29.45,3.0,South,11.5,-,N/A,,Overcast,180,2013-01-31 03:35:00
10:55 PM,50.0,48.2,94,29.45,4.0,South,9.2,-,N/A,,Overcast,170,2013-01-31 03:55:00
11:15 PM,51.8,48.2,88,29.43,8.0,South,5.8,-,N/A,,Overcast,190,2013-01-31 04:15:00
11:35 PM,50.0,48.2,94,29.41,1.2,South,5.8,-,N/A,,Overcast,180,2013-01-31 04:35:00
11:55 PM,48.2,46.4,93,29.38,0.5,South,3.5,-,N/A,,Overcast,170,2013-01-31 04:55:00